Powrót do katalogu

NOAA 16 DEB

AktywnySSO
NORAD 42363·DEBRIS·🇺🇸 United States

Wystrzelony Sep 21, 2000 z Vandenberg Space Force Base

Loading…

Następne Przeloty (najbliższe 24 godziny)

TLE

ŚwieżeSource: Space-Track

Epoka: Sep 12, 2026, 05:44 UTC

1 42363U 00055RF  26255.23906092  .00002065  00000-0  10703-2 0  9995
2 42363  98.8005 255.9473 0062385 139.5151 221.0688 14.14933768540736

Śledź NOAA 16 DEB w czasie rzeczywistym z AllMySat

Download on the App Store